Weather in Dara'a

Syria     32°37′05″N   36°06′18″E
temp.,
°C
wind,
m/s
gust,
m/s
humid.,
%
clouds,
%
prec.,
mm/h
press.,
hPa
HPBL,
m
15 april, thu
thu1500:00+15nne114248 0.0 101811
03:00+13ssw114060 0.0 101711
06:00+12se11395 0.0 101711
09:00+20se34240 0.0 1018382
12:00+25sse44180 0.0 10171373
15:00+27wsw23160 0.0 10152514
18:00+24nw56255 0.0 1014301
21:00+19wnw3330100 0.0 101515
16 april, fri
fri1600:00+17nnw1142100 0.0 101511
03:00+16n223881 0.0 101511
06:00+14ese013911 0.0 101511
09:00+22e1123100 0.0 1015210
12:00+27ene3316100 0.0 10151174
15:00+29nne231386 0.0 10122325
18:00+26nw6825100 0.0 1012260
21:00+20wnw22380 0.0 101417
17 april, sat
sat1700:00+19nnw33350 0.0 101415
03:00+17ne23280 0.0 101414
06:00+16se22310 0.0 101411
09:00+22sse56400 0.0 1015438
12:00+28wnw11232 0.0 10141108
15:00+30nw64210 0.0 10132003
18:00+27nw45265 0.0 1014337
21:00+22wnw223619 0.0 101513
18 april, sun
sun1800:00+20nw223444 0.0 101611
03:00+19sse113445 0.0 101511
06:00+19sse22295 0.0 101511
09:00+26sse682413 0.0 1016320
12:00+31s54180 0.0 10161443
15:00+33wnw53160 0.0 10142553
18:00+30nw45220 0.0 1014192
21:00+24ene00310 0.0 101511
19 april, mon
mon1900:00+23e33273 0.0 101513
03:00+23sse4425100 0.0 101521
06:00+22sse4527100 0.0 101549
09:00+27sse71121100 0.0 1015424
12:00+33sse9914100 0.0 10131166
15:00+35s6711100 0.0 10103036
18:00+32sw3416100 0.0 101071
21:00+27wsw2220100 0.0 101011